Regional Weather Roundup
Issued by NWS

Home | Current Version | Previous Version | Text Only | Print | Product List | Glossary Off
Versions: 1 2 3 4 5 6 7 8 9 10 11 12 13 14 15 16 17 18 19 20 21 22 23 24 25 26 27 28 29 30 31 32 33 34 35 36 37 38 39 40 41 42 43 44 45 46 47 48 49 50

796
ASUS43 KFSD 120610
RWRSD

WEATHER ROUNDUP FOR SOUTH DAKOTA
NATIONAL WEATHER SERVICE SIOUX FALLS SD
1200 AM CST FRI FEB 12 2016

NOTE: "FAIR" INDICATES FEW OR NO CLOUDS BELOW 12,000 FEET WITH NO
SIGNIFICANT WEATHER AND/OR OBSTRUCTIONS TO VISIBILITY.


SDZ001>005-009-010-012>017-120700-
NORTHWEST AND NORTH CENTRAL SOUTH DAKOTA

CITY           SKY/WX    TMP DP  RH WIND       PRES   REMARKS
BUFFALO          N/A     29  24  82 N8        30.17R WCI  21
FAITH            N/A     25  20  81 N6        30.24S WCI  18
MOBRIDGE       CLOUDY    21  16  81 N7        30.26S WCI  12
$$

SDZ012>016-024>037-041>051-057-063-072>074-120700-
SOUTHWEST AND SOUTH CENTRAL SOUTH DAKOTA

CITY           SKY/WX    TMP DP  RH WIND       PRES   REMARKS
RAPID CTY ARPT CLOUDY    31  28  89 CALM      30.24S
PIERRE         CLOUDY    28  25  88 NW9       30.27R WCI  19
CUSTER         CLOUDY    32  22  66 W10       30.18S WCI  24
ELLSWORTH AFB  CLOUDY    31  29  92 N5        30.23S WCI  26
PHILIP         CLOUDY    32  28  85 NW9       30.26R WCI  24
PINE RIDGE     CLOUDY    33  29  85 CALM      30.24R
SPEARFISH        N/A     32  28  86 W8        30.22S WCI  25
WINNER         FAIR      25  21  85 W6        30.25R WCI  18
$$

SDZ004>011-016>023-039-040-120700-
NORTHEAST SOUTH DAKOTA

CITY           SKY/WX    TMP DP  RH WIND       PRES   REMARKS
ABERDEEN       CLOUDY    12   8  84 N6        30.30R WCI   3
WATERTOWN      CLOUDY    15  10  80 N15       30.21F WCI   0
BROOKINGS      FLURRIES  17  14  88 N10       30.21S WCI   5
SISSETON         N/A     11   8  88 N9        30.27S WCI  -2
$$

SDZ017-020-022-023-036>040-048>070-120700-
SOUTHEAST SOUTH DAKOTA

CITY           SKY/WX    TMP DP  RH WIND       PRES   REMARKS
SIOUX FALLS    LGT SNOW  13  10  88 CALM      30.24S FOG
HURON          CLOUDY    18  14  84 N12       30.28R WCI   5
CHAMBERLAIN    CLOUDY    25  24  94 N8        30.25R WCI  17
MITCHELL       CLOUDY    20  18  92 NW6       30.27S WCI  12
YANKTON        CLOUDY    18  16  93 NW7       30.27R WCI   8
$$

ABBREVIATIONS USED IN REMARKS
   TC - TEMPERATURE IN CELSIUS
  WCI - WIND CHILL INDEX
   HX - HEAT INDEX
  VSB - VISIBILITY





USA.gov is the U.S. government's official web portal to all federal, state and local government web resources and services.